Weather History for Mosby, MO

Change the Weather History Date:

Monday, January 28, 2013

  Actual Average (KMKC) Record (KMKC)
Temperature  
Mean Temperature 60 °F -  
Max Temperature 73 °F 38 °F 75 °F (2013)
Min Temperature 46 °F 22 °F -9 °F (1997)
Degree Days  
Heating Degree Days 6    
Growing Degree Days 10 (Base 50)    
Moisture  
Dew Point 54 °F    
Average Humidity 79    
Maximum Humidity 100    
Minimum Humidity 50    
Precipitation  
Precipitation 0.00 in - - ()
Sea Level Pressure  
Sea Level Pressure 29.78 in    
Wind  
Wind Speed 8 mph (South)    
Max Wind Speed 22 mph    
Max Gust Speed 28 mph    
Visibility 7 miles    
Events Rain    
Averages and records for this station are not official NWS values.
T = Trace of Precipitation, MM = Missing Value Source: NWS Daily Summary

Daily Weather History Graph

Daily Weather History Graph

Search for Another Location

Airport:

Trip Planner

Search our weather history database for the weather conditions in past years. The results will help you decide how hot, cold, wet, or windy it might be!

Date:

Astronomy

Jan. 28, 2013 Rise Set
Actual Time 7:27 AM CST 5:33 PM CST
Civil Twilight 6:58 AM CST 6:02 PM CST
Nautical Twilight 6:26 AM CST 6:34 PM CST
Astronomical Twilight 5:55 AM CST 7:05 PM CST
Moon 7:27 PM CST (1/28) 7:54 AM CST (1/28)
Length of Visible Light 11h 03m
Length of Day
10h 05m
Full, 98% of the Moon is Illuminated
Jan 28
Full
Feb 3
Last Quarter
Feb 10
New
Feb 17
First Quarter
Feb 25
Full

Hourly Weather History & Observations

Time (CST) Temp. Windchill Dew Point Humidity Pressure Visibility Wind Dir Wind Speed Gust Speed Precip Events Conditions
12:15 AM 60.8 °F - 55.4 °F 82% 29.82 in 10.0 mi SSW 9.2 mph 17.3 mph N/A   Overcast
12:35 AM 60.8 °F - 55.4 °F 82% 29.83 in 7.0 mi SSW 11.5 mph 17.3 mph N/A   Overcast
12:55 AM 59.0 °F - 55.4 °F 88% 29.83 in 3.0 mi SW 9.2 mph - N/A Rain Light Rain
1:15 AM 59.0 °F - 55.4 °F 88% 29.83 in 5.0 mi SSW 8.1 mph - N/A   Overcast
1:35 AM 59.0 °F - 55.4 °F 88% 29.83 in 7.0 mi South 5.8 mph - N/A   Overcast
1:55 AM 59.0 °F - 55.4 °F 88% 29.83 in 7.0 mi South 3.5 mph - N/A   Overcast
2:15 AM 59.0 °F - 55.4 °F 88% 29.83 in 7.0 mi South 3.5 mph - N/A   Overcast
2:35 AM 59.0 °F - 55.4 °F 88% 29.83 in 7.0 mi Calm Calm - N/A   Overcast
2:55 AM 59.0 °F - 55.4 °F 88% 29.83 in 4.0 mi NW 3.5 mph - N/A Rain Rain
3:15 AM 55.4 °F - 55.4 °F 100% 29.84 in 1.8 mi NW 4.6 mph - N/A   Drizzle
3:35 AM 53.6 °F - 51.8 °F 94% 29.84 in 1.8 mi NW 6.9 mph - N/A   Light Drizzle
3:55 AM 51.8 °F - 50.0 °F 94% 29.84 in 2.0 mi NW 4.6 mph - N/A   Light Drizzle
4:15 AM 50.0 °F - 50.0 °F 100% 29.85 in 2.0 mi NNW 5.8 mph - N/A   Light Drizzle
4:35 AM 50.0 °F - 50.0 °F 100% 29.84 in 2.0 mi Calm Calm - N/A   Mist
4:55 AM 50.0 °F - 48.2 °F 94% 29.84 in 2.0 mi Calm Calm - N/A   Overcast
5:15 AM 48.2 °F - 48.2 °F 100% 29.84 in 1.2 mi Calm Calm - N/A   Mostly Cloudy
5:35 AM 48.2 °F - 48.2 °F 100% 29.85 in 1.0 mi Calm Calm - N/A   Mostly Cloudy
6:15 AM 48.2 °F - 46.4 °F 93% 29.85 in 1.2 mi NNW 3.5 mph - N/A   Mist
6:35 AM 46.4 °F 45.2 °F 46.4 °F 100% 29.85 in 1.2 mi NNW 3.5 mph - N/A   Scattered Clouds
6:55 AM 48.2 °F - 46.4 °F 93% 29.85 in 1.8 mi North 4.6 mph - N/A   Mostly Cloudy
7:15 AM 46.4 °F 45.2 °F 46.4 °F 100% 29.86 in 2.0 mi North 3.5 mph - N/A   Overcast
7:35 AM 46.4 °F - 46.4 °F 100% 29.86 in 1.8 mi Calm Calm - N/A   Overcast
7:55 AM 46.4 °F - 46.4 °F 100% 29.86 in 1.5 mi Calm Calm - N/A   Overcast
8:15 AM 46.4 °F - 46.4 °F 100% 29.87 in 1.2 mi Calm Calm - N/A   Overcast
8:35 AM 46.4 °F - 46.4 °F 100% 29.87 in 1.2 mi Calm Calm - N/A   Overcast
8:55 AM 48.2 °F - 46.4 °F 93% 29.87 in 1.2 mi Calm Calm - N/A   Overcast
9:15 AM 48.2 °F - 48.2 °F 100% 29.87 in 2.0 mi Calm Calm - N/A   Overcast
9:35 AM 50.0 °F - 48.2 °F 94% 29.86 in 2.5 mi Calm Calm - N/A   Mist
9:55 AM 51.8 °F - 51.8 °F 100% 29.86 in 3.0 mi East 3.5 mph - N/A   Overcast
10:15 AM 55.4 °F - 53.6 °F 94% 29.86 in 5.0 mi Calm Calm - N/A   Mostly Cloudy
10:35 AM 59.0 °F - 55.4 °F 88% 29.85 in 7.0 mi ESE 5.8 mph - N/A   Mostly Cloudy
10:55 AM 60.8 °F - 55.4 °F 82% 29.85 in 10.0 mi SE 3.5 mph - N/A   Scattered Clouds
11:15 AM 62.6 °F - 57.2 °F 82% 29.84 in 10.0 mi SSE 6.9 mph - N/A   Scattered Clouds
11:35 AM 62.6 °F - 57.2 °F 82% 29.84 in 10.0 mi South 9.2 mph - N/A   Clear
11:55 AM 66.2 °F - 55.4 °F 68% 29.83 in 10.0 mi South 15.0 mph 20.7 mph N/A   Scattered Clouds
12:15 PM 66.2 °F - 55.4 °F 68% 29.81 in 10.0 mi South 8.1 mph - N/A   Clear
12:35 PM 68.0 °F - 55.4 °F 64% 29.80 in 10.0 mi South 13.8 mph - N/A   Scattered Clouds
12:55 PM 69.8 °F - 55.4 °F 60% 29.78 in 10.0 mi South 12.7 mph 18.4 mph N/A   Clear
1:15 PM 69.8 °F - 55.4 °F 60% 29.77 in 10.0 mi SSW 11.5 mph 16.1 mph N/A   Clear
1:35 PM 71.6 °F - 55.4 °F 57% 29.75 in 10.0 mi South 15.0 mph 19.6 mph N/A   Clear
1:55 PM 71.6 °F - 55.4 °F 57% 29.74 in 10.0 mi South 17.3 mph 23.0 mph N/A   Unknown
2:15 PM 73.4 °F - 53.6 °F 50% 29.74 in 10.0 mi SSW 17.3 mph 24.2 mph N/A   Unknown
2:35 PM 73.4 °F - 53.6 °F 50% 29.73 in 10.0 mi SSW 21.9 mph 27.6 mph N/A   Clear
2:55 PM 73.4 °F - 53.6 °F 50% 29.73 in 10.0 mi South 16.1 mph 23.0 mph N/A   Clear
3:15 PM 73.4 °F - 55.4 °F 53% 29.73 in 10.0 mi South 15.0 mph 23.0 mph N/A   Clear
3:35 PM 71.6 °F - 55.4 °F 57% 29.72 in 10.0 mi South 17.3 mph 21.9 mph N/A   Clear
3:55 PM 71.6 °F - 55.4 °F 57% 29.72 in 10.0 mi South 16.1 mph 25.3 mph N/A   Scattered Clouds
4:15 PM 71.6 °F - 55.4 °F 57% 29.72 in 10.0 mi South 11.5 mph 19.6 mph N/A   Mostly Cloudy
4:35 PM 71.6 °F - 57.2 °F 60% 29.72 in 10.0 mi South 13.8 mph 20.7 mph N/A   Overcast
4:55 PM 71.6 °F - 59.0 °F 64% 29.71 in 10.0 mi South 9.2 mph 18.4 mph N/A   Mostly Cloudy
5:15 PM 69.8 °F - 59.0 °F 68% 29.70 in 10.0 mi South 9.2 mph - N/A   Scattered Clouds
5:55 PM 69.8 °F - 59.0 °F 68% 29.70 in 10.0 mi South 13.8 mph 19.6 mph N/A   Mostly Cloudy
6:15 PM 69.8 °F - 59.0 °F 68% 29.70 in 10.0 mi South 10.4 mph 16.1 mph N/A   Scattered Clouds
6:35 PM 69.8 °F - 59.0 °F 68% 29.69 in 10.0 mi South 11.5 mph 17.3 mph N/A   Clear
6:55 PM 69.8 °F - 59.0 °F 68% 29.69 in 10.0 mi South 11.5 mph 19.6 mph N/A   Scattered Clouds
7:15 PM 68.0 °F - 59.0 °F 73% 29.69 in 10.0 mi South 12.7 mph 17.3 mph N/A   Scattered Clouds
7:35 PM 68.0 °F - 59.0 °F 73% 29.70 in 10.0 mi South 11.5 mph 17.3 mph N/A   Scattered Clouds
7:55 PM 68.0 °F - 59.0 °F 73% 29.70 in 10.0 mi South 10.4 mph 16.1 mph N/A   Mostly Cloudy
8:15 PM 68.0 °F - 59.0 °F 73% 29.70 in 10.0 mi South 11.5 mph - N/A   Overcast
8:35 PM 68.0 °F - 59.0 °F 73% 29.70 in 10.0 mi South 11.5 mph 18.4 mph N/A   Overcast
8:55 PM 68.0 °F - 59.0 °F 73% 29.69 in 10.0 mi South 12.7 mph 21.9 mph N/A   Mostly Cloudy
9:15 PM 68.0 °F - 59.0 °F 73% 29.70 in 10.0 mi South 17.3 mph 21.9 mph N/A   Mostly Cloudy
9:35 PM 68.0 °F - 59.0 °F 73% 29.69 in 10.0 mi South 15.0 mph 24.2 mph N/A   Mostly Cloudy
9:55 PM 68.0 °F - 59.0 °F 73% 29.69 in 10.0 mi South 15.0 mph 24.2 mph N/A   Mostly Cloudy
10:15 PM 68.0 °F - 59.0 °F 73% 29.68 in 10.0 mi South 18.4 mph 27.6 mph N/A   Mostly Cloudy
10:35 PM 68.0 °F - 59.0 °F 73% 29.68 in 10.0 mi South 18.4 mph 25.3 mph N/A   Mostly Cloudy
10:55 PM 68.0 °F - 59.0 °F 73% 29.68 in 10.0 mi South 15.0 mph - N/A   Mostly Cloudy
11:15 PM 68.0 °F - 60.8 °F 78% 29.68 in 10.0 mi South 12.7 mph 20.7 mph N/A   Overcast
11:55 PM 68.0 °F - 60.8 °F 78% 29.66 in 10.0 mi South 12.7 mph 19.6 mph N/A   Overcast